AUA210 EDDF-LOWW

Flight info

Callsign AUA210
Flight time N/A
Altitude 35000
Route SULUS7S/18 SULUS Z650 NOGRA DCT VEMUT DCT ETVIS DCT BUDEX BUDEX2W
Aircraft A320/M-SDE3FGHIRWY/LB1

Departure

Time N/A
Airport Frankfurt Main Airport (EDDF)

Arrival

Time 2026-04-24 19:32
Airport Vienna International Airport (LOWW)
Time Latitude Longitude Altitude Speed Heading
2026-04-24 18:54 49.69951 12.71420 35112 ft 496 kts 124°
2026-04-24 18:55 49.64123 12.84604 35118 ft 495 kts 125°
2026-04-24 18:56 49.60199 12.93287 35108 ft 495 kts 125°
2026-04-24 18:56 49.56233 13.01959 35106 ft 495 kts 125°
2026-04-24 18:57 49.52295 13.10569 35102 ft 495 kts 125°
2026-04-24 18:57 49.48337 13.19223 35103 ft 495 kts 125°
2026-04-24 18:58 49.44372 13.27876 35099 ft 495 kts 126°
2026-04-24 18:58 49.40402 13.36500 35092 ft 494 kts 125°
2026-04-24 18:59 49.36430 13.45108 35107 ft 493 kts 125°
2026-04-24 18:59 49.32491 13.53611 35118 ft 492 kts 125°
2026-04-24 19:00 49.28519 13.62157 35111 ft 492 kts 125°
2026-04-24 19:00 49.24546 13.70677 35106 ft 492 kts 125°
2026-04-24 19:01 49.20570 13.79194 35100 ft 491 kts 125°
2026-04-24 19:01 49.16615 13.87629 35099 ft 491 kts 125°
2026-04-24 19:02 49.13294 13.94683 35091 ft 492 kts 125°
2026-04-24 19:02 49.08626 14.04568 35092 ft 491 kts 125°
2026-04-24 19:03 49.04631 14.13009 35091 ft 490 kts 125°
2026-04-24 19:03 49.00639 14.21432 35096 ft 490 kts 125°
2026-04-24 19:04 48.96657 14.29792 34828 ft 482 kts 123°
2026-04-24 19:04 48.94905 14.34089 34403 ft 477 kts 120°
2026-04-24 19:04 48.93242 14.38366 33911 ft 476 kts 119°
2026-04-24 19:04 48.91578 14.42708 33369 ft 476 kts 119°
2026-04-24 19:05 48.89923 14.47059 32829 ft 473 kts 119°
2026-04-24 19:05 48.88289 14.51356 32297 ft 468 kts 119°
2026-04-24 19:05 48.86664 14.55605 31792 ft 462 kts 119°
2026-04-24 19:05 48.85052 14.59798 31296 ft 458 kts 119°
2026-04-24 19:06 48.83449 14.63949 30803 ft 453 kts 119°
2026-04-24 19:06 48.81858 14.68053 30319 ft 449 kts 119°
2026-04-24 19:06 48.80276 14.72119 29787 ft 445 kts 119°
2026-04-24 19:06 48.78708 14.76138 29213 ft 441 kts 119°
2026-04-24 19:07 48.77152 14.80119 28666 ft 437 kts 119°
2026-04-24 19:07 48.75608 14.84067 28128 ft 434 kts 119°
2026-04-24 19:07 48.74593 14.86668 27778 ft 431 kts 119°
2026-04-24 19:07 48.72585 14.91815 27094 ft 426 kts 119°
2026-04-24 19:08 48.71086 14.95655 26582 ft 422 kts 119°
2026-04-24 19:08 48.69590 14.99476 26096 ft 419 kts 119°
2026-04-24 19:08 48.68111 15.03244 25601 ft 416 kts 119°
2026-04-24 19:08 48.66636 15.06994 25122 ft 412 kts 119°
2026-04-24 19:09 48.65177 15.10701 24653 ft 410 kts 118°
2026-04-24 19:09 48.63724 15.14395 24186 ft 406 kts 118°
2026-04-24 19:09 48.62284 15.18044 23729 ft 404 kts 119°
2026-04-24 19:09 48.60847 15.21671 23206 ft 401 kts 119°
2026-04-24 19:10 48.59415 15.25282 22665 ft 399 kts 119°
2026-04-24 19:10 48.58008 15.28829 22138 ft 398 kts 119°
2026-04-24 19:10 48.56589 15.32400 21626 ft 396 kts 119°
2026-04-24 19:10 48.55176 15.35952 21253 ft 394 kts 119°
2026-04-24 19:11 48.53774 15.39478 20880 ft 389 kts 118°
2026-04-24 19:11 48.52619 15.43113 20506 ft 381 kts 107°
2026-04-24 19:11 48.51833 15.46900 20129 ft 376 kts 104°
2026-04-24 19:11 48.51147 15.50677 19765 ft 370 kts 97°
2026-04-24 19:12 48.50616 15.54447 19404 ft 367 kts 101°
2026-04-24 19:12 48.50087 15.58177 19028 ft 360 kts 92°
2026-04-24 19:12 48.49941 15.61909 18690 ft 355 kts 89°
2026-04-24 19:12 48.49812 15.65614 18341 ft 353 kts 89°
2026-04-24 19:13 48.49725 15.68067 18083 ft 351 kts 89°
2026-04-24 19:13 48.49550 15.72962 17553 ft 349 kts 90°
2026-04-24 19:13 48.49418 15.76559 17178 ft 347 kts 89°
2026-04-24 19:13 48.49282 15.80174 16794 ft 345 kts 89°
2026-04-24 19:14 48.49148 15.83786 16414 ft 344 kts 89°
2026-04-24 19:14 48.49017 15.87373 16041 ft 342 kts 89°
2026-04-24 19:14 48.48885 15.90945 15672 ft 341 kts 89°
2026-04-24 19:14 48.48751 15.94512 15301 ft 340 kts 90°
2026-04-24 19:15 48.48613 15.98072 14938 ft 339 kts 90°
2026-04-24 19:15 48.48474 16.01615 14579 ft 338 kts 90°
2026-04-24 19:15 48.48251 16.05144 14225 ft 339 kts 97°
2026-04-24 19:15 48.47601 16.08562 13871 ft 341 kts 110°
2026-04-24 19:16 48.44876 16.14258 13092 ft 342 kts 146°
2026-04-24 19:16 48.42711 16.15679 12708 ft 339 kts 171°
2026-04-24 19:16 48.40395 16.15740 12331 ft 331 kts 195°
2026-04-24 19:17 48.38298 16.14506 12054 ft 319 kts 213°
2026-04-24 19:17 48.36414 16.12846 12046 ft 312 kts 215°
2026-04-24 19:17 48.34555 16.11160 12051 ft 311 kts 215°
2026-04-24 19:17 48.32557 16.09890 12053 ft 316 kts 193°
2026-04-24 19:18 48.30360 16.09909 12058 ft 321 kts 168°
2026-04-24 19:18 48.28352 16.11245 12057 ft 322 kts 143°
2026-04-24 19:18 48.26846 16.13701 12056 ft 320 kts 117°
2026-04-24 19:18 48.25979 16.16748 12051 ft 318 kts 107°
2026-04-24 19:19 48.25261 16.19885 12048 ft 318 kts 105°
2026-04-24 19:19 48.24558 16.23030 12051 ft 318 kts 105°
2026-04-24 19:19 48.23857 16.26188 11713 ft 319 kts 105°
2026-04-24 19:19 48.23156 16.29348 11343 ft 319 kts 105°
2026-04-24 19:20 48.22455 16.32494 10966 ft 318 kts 105°
2026-04-24 19:20 48.21753 16.35642 10614 ft 317 kts 105°
2026-04-24 19:20 48.21055 16.38778 10258 ft 317 kts 105°
2026-04-24 19:20 48.20370 16.41851 10052 ft 313 kts 105°
2026-04-24 19:21 48.19674 16.44967 10052 ft 312 kts 105°
2026-04-24 19:21 48.18990 16.48011 10059 ft 312 kts 105°
2026-04-24 19:21 48.18295 16.51088 10057 ft 311 kts 105°
2026-04-24 19:21 48.17603 16.54156 10057 ft 311 kts 105°
2026-04-24 19:22 48.17142 16.56195 10057 ft 311 kts 105°
2026-04-24 19:22 48.16211 16.60303 10062 ft 318 kts 105°
2026-04-24 19:22 48.15457 16.63688 10061 ft 366 kts 105°
2026-04-24 19:22 48.14658 16.67309 10047 ft 359 kts 105°
2026-04-24 19:23 48.13891 16.70760 10054 ft 340 kts 105°
2026-04-24 19:23 48.13153 16.74057 9901 ft 331 kts 105°
2026-04-24 19:23 48.12398 16.77452 9501 ft 356 kts 105°
2026-04-24 19:23 48.11628 16.80959 9096 ft 342 kts 105°
2026-04-24 19:24 48.10908 16.84252 8701 ft 325 kts 105°
2026-04-24 19:24 48.10232 16.87352 8310 ft 311 kts 105°
2026-04-24 19:24 48.09575 16.90384 7784 ft 303 kts 105°
2026-04-24 19:24 48.08940 16.93357 7278 ft 296 kts 106°
2026-04-24 19:25 48.08235 16.96176 7003 ft 282 kts 121°
2026-04-24 19:25 48.06913 16.98254 6979 ft 276 kts 152°
2026-04-24 19:25 48.05139 16.99156 6984 ft 267 kts 182°
2026-04-24 19:25 48.03425 16.98731 6976 ft 238 kts 212°
2026-04-24 19:26 48.02173 16.97246 6980 ft 226 kts 237°
2026-04-24 19:26 48.01531 16.95199 6987 ft 217 kts 261°
2026-04-24 19:26 48.01233 16.92996 6985 ft 216 kts 265°
2026-04-24 19:26 48.00997 16.90815 6982 ft 215 kts 269°
2026-04-24 19:27 48.01183 16.88666 6984 ft 206 kts 295°
2026-04-24 19:27 48.01769 16.86714 6802 ft 210 kts 297°
2026-04-24 19:27 48.02370 16.84747 6300 ft 206 kts 296°
2026-04-24 19:27 48.02963 16.82804 5749 ft 205 kts 297°
2026-04-24 19:28 48.03466 16.80803 5120 ft 207 kts 291°
2026-04-24 19:28 48.03975 16.78840 4578 ft 200 kts 296°
2026-04-24 19:28 48.04556 16.76967 3935 ft 197 kts 298°
2026-04-24 19:28 48.05154 16.75126 3370 ft 196 kts 298°
2026-04-24 19:29 48.06311 16.71596 2688 ft 177 kts 299°
2026-04-24 19:29 48.06830 16.70012 2400 ft 165 kts 299°
2026-04-24 19:29 48.07307 16.68557 2225 ft 150 kts 299°
2026-04-24 19:30 48.07757 16.67185 2031 ft 145 kts 300°
2026-04-24 19:30 48.08196 16.65847 1851 ft 143 kts 299°
2026-04-24 19:30 48.08631 16.64518 1661 ft 142 kts 298°
2026-04-24 19:30 48.09065 16.63191 1465 ft 143 kts 298°
2026-04-24 19:31 48.09503 16.61847 1311 ft 144 kts 298°
2026-04-24 19:31 48.09936 16.60496 1109 ft 144 kts 296°
2026-04-24 19:31 48.10370 16.59148 931 ft 144 kts 297°
2026-04-24 19:31 48.10822 16.57814 677 ft 142 kts 296°
2026-04-24 19:32 48.11215 16.56590 628 ft 115 kts 297°
2026-04-24 19:32 48.11496 16.55755 626 ft 65 kts 296°
2026-04-24 19:32 48.11631 16.55392 628 ft 17 kts 312°
2026-04-24 19:32 48.11729 16.55246 616 ft 22 kts 315°
2026-04-24 19:33 48.11856 16.55146 615 ft 12 kts 10°
2026-04-24 19:33 48.11860 16.55147 612 ft 0 kts 13°
2026-04-24 19:34 48.11881 16.55180 617 ft 10 kts 66°
2026-04-24 19:34 48.11828 16.55379 620 ft 32 kts 115°
2026-04-24 19:34 48.11733 16.55678 616 ft 26 kts 115°
2026-04-24 19:34 48.11674 16.55853 629 ft 15 kts 118°
2026-04-24 19:35 48.11649 16.55926 621 ft 9 kts 116°
2026-04-24 19:35 48.11614 16.56028 626 ft 16 kts 118°
2026-04-24 19:35 48.11609 16.56181 624 ft 16 kts 45°
2026-04-24 19:35 48.11716 16.56285 609 ft 21 kts 27°
2026-04-24 19:36 48.11729 16.56457 613 ft 19 kts 115°
2026-04-24 19:36 48.11682 16.56600 608 ft 0 kts 117°
2026-04-24 19:37 48.11682 16.56603 614 ft 2 kts 108°
2026-04-24 19:37 48.11675 16.56628 610 ft 4 kts 115°
2026-04-24 19:37 48.11664 16.56673 608 ft 3 kts 73°
2026-04-24 19:37 48.11689 16.56706 604 ft 7 kts 17°
2026-04-24 19:38 48.11703 16.56706 604 ft 2 kts 355°
2026-04-24 19:38 48.11715 16.56733 603 ft 0 kts 20°
2026-04-24 19:38 48.11738 16.56746 602 ft 6 kts 20°